Location: Woodstock
(35.2731°N, 89.9823°W)
Time: 12:33:16
(UTC+00:00)

BlueWalker 3 - Visible Passes

Search period start: 04 October 2024 00:00
Search period end: 14 October 2024 00:00
Orbit: 473 x 486 km, 53.2° (Epoch: 03 October)

Date Brightness Start Highest point End Pass type
(mag) Time Alt. Az. Time Alt. Az. Time Alt. Az.
04 Oct 2.3 10:09:42 53° SE 10:09:48 54° SE 10:13:25 10° NE visible
05 Oct 3.8 09:43:16 28° ENE 09:43:16 28° ENE 09:45:16 10° ENE visible
05 Oct 3.5 11:17:30 12° WNW 11:19:52 20° NNW 11:22:39 10° NNE visible
06 Oct 5.1 09:16:41 12° ENE 09:16:41 12° ENE 09:17:03 10° ENE visible
06 Oct 3.3 10:50:54 21° NW 10:51:40 22° NW 10:54:37 10° NNE visible
07 Oct 3.5 10:24:10 23° NNW 10:24:10 23° NNW 10:26:30 10° NNE visible
08 Oct 4.3 09:57:18 16° NNE 09:57:18 16° NNE 09:58:22 10° NNE visible
